Regional Weather Roundup
Issued by NWS

Home | Current Version | Previous Version | Text Only | Print | Product List | Glossary Off
Versions: 1 2 3 4 5 6 7 8 9 10 11 12 13 14 15 16 17 18 19 20 21 22 23 24 25 26 27 28 29 30 31 32 33 34 35 36 37 38 39 40 41 42 43 44 45 46 47 48 49 50

000
ASUS43 KMPX 261601
RWRMN
WEATHER ROUNDUP FOR MINNESOTA
NATIONAL WEATHER SERVICE TWIN CITIES/CHANHASSEN MN
1000 AM CST MON JAN 26 2015


NOTE: "FAIR" INDICATES FEW OR NO CLOUDS BELOW 12,000 FEET WITH NO
SIGNIFICANT WEATHER AND/OR OBSTRUCTIONS TO VISIBILITY. N/A MEANS
CURRENT SKY AND/OR WEATHER CONDITIONS ARE NOT AVAILABLE.

MNZ060>063-068>070-261700-
   Twin Cities Metro

CITY           SKY/WX    TMP DP  RH WIND       PRES   REMARKS
TWIN CITIES    PTSUNNY   34  29  82 SW8       29.69F WCI  27
ST PAUL        CLOUDY    32  29  88 E3        29.70F
CRYSTAL        CLOUDY    36  30  79 W9        29.68F
BLAINE         MOSUNNY   36  32  87 SW7       29.68F
LAKEVILLE      CLOUDY    34  30  86 SW6       29.69S WCI  29
EDEN PRAIRIE   MOSUNNY   35  30  82 W7        29.69S WCI  29
SOUTH ST PAUL  CLOUDY    34  30  87 SW5       29.69F WCI  29
LAKE ELMO      CLOUDY    32  30  93 SW6       29.69F WCI  26
$$
MNZ001>005-007-008-013>017-022>024-027-028-261700-
   Northwest Minnesota

CITY           SKY/WX    TMP DP  RH WIND       PRES   REMARKS
BEMIDJI        CLOUDY    33  32  94 NW15G22   29.64R WCI  23
HALLOCK        PTSUNNY   36  30  80 NW26G32   29.72R
ROSEAU         LGT RAIN  36  30  80 NW17      29.65R
WARROAD        CLOUDY    34  30  86 NW14G21   29.64R WCI  24
THIEF RVR FALL CLOUDY    36  32  87 NW18      29.70R
CROOKSTON      SUNNY     37  32  81 NW17      29.73R
FOSSTON        PTSUNNY   36  28  75 NW12      29.69R
DETROIT LAKES  PTSUNNY   34  32  93 NW15G22   29.72R WCI  24
MOORHEAD       MOSUNNY   39  36  87 NW17G26   29.75R
PARK RAPIDS    MOSUNNY   37  30  75 NW17      29.65R
MAHNOMEN       CLOUDY    32  29  90 NW10      29.70R WCI  24
$$
MNZ006-009>011-018-025>026-261700-
   North Central Minnesota

CITY           SKY/WX    TMP DP  RH WIND       PRES   REMARKS
BAUDETTE       CLOUDY    33  30  88 NW12      29.60R WCI  24
FLAG ISLAND    DRIZZLE   30  28  93 NW18      29.62R WCI  18
INTL FALLS     CLOUDY    29  26  89 W6        29.59R WCI  23
WASKISH        CLOUDY    34  30  86 SW7       29.62R WCI  28
BIG FORK       MIX PCPN  32  28  86 W3        29.60R
LONGVILLE      CLOUDY    36  30  80 W10       29.63R
GRAND RAPIDS   CLOUDY    30  28  93 W10       29.60R WCI  21
CRANE LAKE     LGT SNOW  23  21  93 S3        29.62S
ORR            MIX PCPN  25  21  86 CALM      29.56S
COOK           LGT SNOW  25  21  86 S3        29.60S
WALKER         LGT SNOW  33  31  91 W9G17     29.63R WCI  25
$$
MNZ012-019>021-037-261700-
   Northeast Minnesota

CITY           SKY/WX    TMP DP  RH WIND       PRES   REMARKS
DULUTH         LGT SNOW  22  19  89 S7        29.61S VSB 3/4 WCI  13
ELY            CLOUDY    21  18  86 S6        29.61R WCI  14
HIBBING        LGT SNOW  24  20  84 SE3       29.60S VSB 1
EVELETH        LGT SNOW  23  21  93 S5        29.62R VSB 1   WCI  17
DULUTH HARBOR  LGT SNOW  25  21  86 CALM      29.68S
TWO HARBORS    LGT SNOW  25  19  80 CALM      29.63F
SILVER BAY     LGT SNOW  25  21  86 CALM      29.64S
GRAND MARAIS     N/A     27  24  89 S14       29.71S WCI  16
G MARAIS ARPRT LGT SNOW  21  16  79 S5        29.64S WCI  15
$$
MNZ029>031-032-039>041-046>048-054>057-064-261700-
   West Central Minnesota

CITY           SKY/WX    TMP DP  RH WIND       PRES   REMARKS
FERGUS FALLS   MOSUNNY   34  30  86 NW12      29.77R WCI  25
WHEATON        SUNNY     37  30  75 W18       29.79R
MORRIS         MOSUNNY   37  34  87 NW20      29.74R
ALEXANDRIA     SUNNY     35  30  82 W18       29.72R WCI  24
ELBOW LAKE     FAIR      34  31  90 NW16      29.74R WCI  24
WADENA         CLOUDY    32  30  93 W6        29.68S WCI  26
GLENWOOD       SUNNY     36  30  80 W15       29.73R
APPLETON       MOSUNNY   39  34  81 W14       29.77R
BENSON         CLOUDY    39  32  75 NW12      29.75R
ORTONVILLE     SUNNY     39  30  70 NW15      29.78R
MADISON        SUNNY     43  36  75 NW12      29.78R
WILLMAR        FAIR      37  32  81 NW13      29.75R
$$
MNZ033>034-036-042>043-049>051-058-059-261700-
   Central Minnesota

CITY           SKY/WX    TMP DP  RH WIND       PRES   REMARKS
ST CLOUD       SUNNY     36  30  79 NW16      29.69R
SAUK CENTRE    FAIR      35  31  87 NW13      29.71R WCI  26
PAYNESVILLE    SUNNY     33  31  90 W13G18    29.72R WCI  24
AITKIN         CLOUDY    36  28  75 W5        29.62R
PINE RIVER     CLOUDY    34  30  86 W5        29.69R WCI  30
BRAINERD       CLOUDY    34  29  82 W12       29.66R WCI  25
STAPLES        CLOUDY    34  30  86 W9        29.68R WCI  26
LONG PRAIRIE   CLOUDY    32  30  93 W13       29.70R WCI  22
LITTLE FALLS   SUNNY     36  30  80 W7        29.68R
LITCHFIELD     SUNNY     37  34  87 NW13G20   29.72R
BUFFALO        MOSUNNY   35  31  85 W9        29.72R WCI  28
MAPLE LAKE     SUNNY     37  32  85 W9        29.71R
$$
MNZ037-044-045-052-053-261700-
   East Central Minnesota

CITY           SKY/WX    TMP DP  RH WIND       PRES   REMARKS
PRINCETON      PTSUNNY   36  30  80 W6        29.68R
MORA           PTSUNNY   28  27  93 SW6       29.67F WCI  22
CAMBRIDGE      CLOUDY    34  25  69 SW6       29.66R WCI  29
RUSH CITY      CLOUDY    29  27  92 SW3       29.67S
MOOSE LAKE     CLOUDY    27  23  86 SW6       29.63S FOG     WCI  20
HINCKLEY       LGT SNOW  27  27 100 SW3       29.66S
CLOQUET        CLOUDY    23  21  93 S5        29.63S FOG     WCI  17
MCGREGOR       CLOUDY    30  28  93 SW5       29.63S WCI  25
$$
MNZ071>073-080-081-089-090-097-098-261700-
   Southwest Minnesota

CITY           SKY/WX    TMP DP  RH WIND       PRES   REMARKS
MONTEVIDEO     SUNNY     39  39 100 N14G20    29.78R
GRANITE FALLS  SUNNY     37  33  84 W13       29.78R
CANBY          SUNNY     41  34  77 W12       29.80S
MARSHALL       SUNNY     37  30  75 NW16      29.80R
REDWOOD FALLS  SUNNY     40  33  76 W14       29.76R
OLIVIA         SUNNY     36  32  87 NW10G16   29.74R
PIPESTONE      SUNNY     37  34  87 NW13G18   29.82R
WINDOM         SUNNY     39  34  81 NW16G22   29.77R
WORTHINGTON    SUNNY     37  30  75 NW17      29.80R
JACKSON        SUNNY     37  32  81 NW15      29.77R
TRACY          SUNNY     40  33  78 NW16      29.78R
SLAYTON        SUNNY     37  32  82 NW16G22   29.80R
$$
MNZ065>067-074>077-082>085-091>093-261700-
   South Central Minnesota

CITY           SKY/WX    TMP DP  RH WIND       PRES   REMARKS
MANKATO        SUNNY     39  30  70 NW18G26   29.73R
NEW ULM        SUNNY     39  32  75 NW23G31   29.74R
ST JAMES       SUNNY     39  34  81 W17G24    29.76R
FAIRMONT       SUNNY     39  30  70 NW15      29.75R
GLENCOE        SUNNY     37  33  87 W13       29.72R
FARIBAULT      CLOUDY    36  30  80 W8        29.72R
OWATONNA       CLOUDY    36  30  80 SW10      29.71S
WASECA         SUNNY     36  32  87 W9        29.73S
ALBERT LEA     SUNNY     36  34  93 W7        29.72R
$$
MNZ078>079-086>088-094>096-261700-
   Southeast Minnesota

CITY           SKY/WX    TMP DP  RH WIND       PRES   REMARKS
ROCHESTER      CLOUDY    30  27  88 S16       29.71F WCI  19
RED WING       CLOUDY    32  28  86 CALM      29.71S
STANTON        CLOUDY    36  31  83 W8        29.70R
DODGE CENTER   CLOUDY    32  30  93 SW14      29.69F WCI  22
WINONA         CLOUDY    30  27  86 S6        29.75F WCI  24
AUSTIN         CLOUDY    34  30  86 SW8       29.72F WCI  27
PRESTON        CLOUDY    25  24  94 S14       29.73F FOG     WCI  13
$$
ABBREVIATIONS USED IN REMARKS
   TC - TEMPERATURES IN CELSIUS
  WCI - WIND CHILL INDEX
   HX - HEAT INDEX
  VSB - VISIBILITY
$$


USA.gov is the U.S. government's official web portal to all federal, state and local government web resources and services.